Lapse_Rate
4.7 4.1 3.8 3.3 2.4 2.3 2.6 2.7 3.2 3.7 4.4 4.5 4.7 4.9 5.4 6.1 6.0 6.3 5.9 5.5 8.2 9.1 8.6 8.3 8.4 8.1 8.3 7.6 6.0 5.3 5.3 4.5
4.7 4.1 3.4 2.9 3.2 2.4 2.5 2.7 3.0 2.8 2.9 3.2 3.0 4.1 4.1 5.0 6.2 6.2 6.3 6.3 8.6 9.3 9.2 9.0 8.6 8.8 8.1 8.1 7.7 5.1 4.2 4.1
4.9 3.8 3.2 2.5 1.8 1.9 2.5 2.7 2.9 3.0 2.8 2.9 3.5 3.4 4.3 5.1 5.8 5.9 6.3 6.5 7.0 9.2 9.1 9.0 9.2 8.9 8.4 8.2 7.9 4.8 5.0 5.4
3.9 3.7 3.2 1.9 1.5 1.1 2.4 2.8 3.1 3.5 3.4 3.5 3.6 4.4 5.0 5.3 5.7 5.5 5.6 6.1 6.8 7.5 8.4 8.4 8.5 8.8 8.4 8.4 8.1 5.5 5.3 5.1
3.4 3.0 2.9 1.8 0.8 1.1 2.1 3.0 3.2 4.6 3.7 3.4 3.8 4.7 4.8 4.7 4.9 5.0 5.4 5.9 6.6 6.9 7.3 7.9 8.1 8.2 8.3 8.2 7.8 4.8 5.6 6.4
2.6 2.6 2.7 2.0 0.7 1.1 1.8 3.0 3.6 3.6 3.4 4.1 3.9 4.2 4.4 4.5 4.8 4.4 4.9 5.9 6.4 6.4 6.8 7.6 7.6 7.5 7.7 7.5 5.8 4.6 6.1 6.6
3.0 2.8 2.5 2.0 1.0 1.6 2.0 2.9 4.0 3.1 3.5 4.4 4.5 4.2 4.2 4.3 4.5 4.6 5.4 5.9 6.2 6.3 6.3 6.9 6.9 6.6 7.2 7.1 5.4 5.5 6.7 6.5
2.3 2.3 1.8 2.8 2.6 2.2 3.4 3.1 3.7 3.5 4.1 4.4 4.4 3.9 3.6 3.9 4.2 5.1 5.6 5.8 6.0 6.0 6.1 6.5 6.8 6.8 7.2 6.3 5.2 6.4 6.5 6.1
2.4 2.4 1.9 2.7 3.5 3.0 2.8 3.1 3.5 4.2 4.4 4.4 4.1 3.9 3.4 3.9 4.4 5.1 5.7 5.7 5.7 6.2 5.7 6.4 6.8 6.6 6.4 5.8 5.7 7.0 7.0 6.4
2.5 2.4 2.1 2.7 3.1 3.2 2.5 2.8 4.0 4.7 4.4 4.1 4.0 3.8 3.6 3.5 4.3 5.2 5.6 6.0 6.4 5.9 6.3 7.4 6.8 6.5 6.6 5.5 6.1 6.9 6.9 6.9
1.8 1.9 2.1 2.6 2.9 2.6 2.4 2.9 4.3 4.5 4.2 3.9 4.4 3.8 3.6 3.5 4.3 5.3 5.8 5.9 5.9 5.8 7.0 7.0 6.6 6.2 6.0 6.4 6.8 7.3 6.9 6.9
1.4 1.6 2.2 2.4 2.6 2.4 2.6 3.2 4.2 4.3 4.1 4.1 3.9 3.6 3.5 3.3 4.1 6.7 7.8 6.0 5.9 5.8 6.9 6.7 6.7 6.5 6.5 7.6 7.3 7.3 6.8 7.1
1.4 1.5 2.1 2.7 3.0 3.0 3.0 3.5 4.2 4.2 4.2 4.1 4.0 3.7 3.4 3.5 4.5 7.4 6.6 5.5 5.6 5.7 6.3 7.6 6.6 7.8 7.6 7.2 7.0 7.0 6.9 6.7
1.3 1.8 2.4 3.1 3.4 3.4 3.2 4.0 4.1 4.2 4.1 4.0 3.8 3.8 3.7 4.1 4.7 5.8 5.7 5.2 5.1 5.2 5.4 7.0 6.6 7.7 7.3 7.2 7.2 6.7 6.6 6.6
2.1 2.1 2.2 3.0 3.6 3.4 3.6 4.5 4.0 3.9 3.9 3.9 3.9 3.9 3.9 4.3 4.6 5.0 5.0 4.9 4.6 4.7 5.0 5.3 6.7 7.7 7.1 7.3 7.4 7.0 6.8 7.0
2.5 2.3 2.0 2.9 3.5 3.4 4.0 4.4 3.9 3.8 3.9 4.0 4.1 4.1 4.1 4.2 4.7 4.7 4.6 4.4 4.4 4.5 4.7 4.9 5.2 7.3 7.4 7.3 7.1 6.7 7.0 7.2
2.8 2.7 2.7 3.5 3.9 3.8 4.4 4.2 3.7 3.8 3.7 4.1 4.4 4.0 4.2 4.4 4.7 4.6 4.4 4.1 3.7 3.9 4.3 4.5 5.2 6.4 7.9 8.0 7.7 7.0 6.9 6.6
2.5 2.4 2.8 3.1 3.4 3.7 4.1 3.9 3.7 3.3 3.7 4.2 4.1 4.1 4.2 4.4 4.8 4.8 4.4 3.9 3.7 3.7 3.9 4.2 5.1 6.3 7.8 7.2 6.8 7.0 6.7 7.1
2.4 2.1 2.3 2.6 3.0 3.2 3.4 3.6 3.3 3.2 3.5 3.9 3.9 3.8 3.9 4.4 4.6 4.5 4.3 4.1 3.8 4.1 4.0 4.3 5.4 6.2 7.0 6.8 6.0 6.0 6.8 7.3
Wind_Speed
4 6 6 6 5 5 5 5 9 13 12 13 11 11 13 14 14 16 18 17 19 18 15 17 17 11 10 9 12 12 10 10
4 5 6 7 5 6 6 6 7 5 3 3 3 5 4 5 12 17 17 18 18 18 15 15 16 11 10 11 10 13 10 12
6 7 6 6 6 5 6 7 6 4 3 3 3 3 3 5 13 14 17 18 18 17 15 10 14 9 9 10 11 11 8 10
7 8 6 7 8 6 5 6 6 5 9 4 5 6 5 3 6 7 14 18 20 20 20 16 11 8 7 9 10 13 9 10
5 6 7 8 6 3 5 5 7 7 9 5 6 6 4 3 5 9 13 17 19 19 20 20 15 10 8 8 10 8 8 9
7 6 6 5 3 4 4 5 7 6 7 5 5 5 4 4 5 8 7 14 18 18 20 18 15 12 9 8 10 9 7 6
4 5 4 3 3 4 4 7 5 7 6 7 7 7 8 7 8 7 7 7 11 16 19 17 15 13 9 9 8 10 8 8
4 7 6 1 3 4 4 5 6 7 7 7 7 7 7 7 8 7 8 7 7 9 16 13 12 15 14 14 8 9 9 9
5 5 3 2 2 3 4 5 6 7 6 7 6 6 4 5 6 6 6 6 7 15 15 16 17 16 15 15 8 7 9 8
6 5 3 3 1 2 4 5 6 6 6 5 6 6 7 6 8 7 5 10 11 15 16 15 16 14 16 14 8 10 10 8
6 3 4 2 1 2 5 4 4 4 5 5 4 6 7 8 8 8 7 10 13 13 14 15 14 14 15 14 9 10 10 8
5 3 3 2 1 4 5 4 5 5 4 3 5 6 6 8 6 7 9 10 13 11 13 11 11 9 12 11 11 11 11 11
2 6 4 2 2 4 4 3 5 4 3 3 5 6 6 7 8 9 14 9 14 13 14 8 10 11 11 11 12 11 11 11
5 4 4 2 2 3 4 3 5 4 3 4 5 6 6 8 8 8 13 12 11 13 12 12 10 11 12 12 11 11 11 10
5 4 4 2 1 3 3 3 4 4 4 5 5 6 6 7 6 9 11 13 9 10 11 10 10 9 11 13 12 11 11 10
7 6 5 2 1 2 1 3 4 4 4 5 5 6 6 6 7 7 11 12 10 12 9 11 12 9 10 14 12 11 11 11
8 6 5 4 3 1 1 2 4 4 5 5 5 5 6 7 7 8 8 9 9 9 11 10 11 9 27 26 17 10 11 11
8 8 6 5 3 3 1 2 3 5 5 5 5 5 6 7 7 8 9 9 9 10 11 11 12 11 28 27 22 9 10 10
7 6 5 5 3 3 2 4 5 5 5 5 5 5 5 7 7 8 8 7 9 9 10 11 12 10 27 27 21 10 10 10
Wind_Direction
301 312 302 299 328 326 346 354 4 358 0 350 357 350 350 2 355 355 347 341 352 351 349 348 345 346 344 341 342 348 331 324
297 323 339 346 328 346 2 356 357 7 340 337 340 345 330 334 354 344 346 343 344 349 348 346 347 347 335 342 343 348 343 336
327 326 10 339 320 350 7 12 0 3 349 331 332 318 316 317 343 341 349 347 335 336 338 335 348 344 338 345 348 346 339 342
310 332 336 331 2 8 12 9 358 15 2 349 336 325 322 323 342 336 336 343 340 333 332 337 326 339 338 344 2 352 335 340
296 336 331 346 354 18 29 12 18 9 9 8 1 348 339 319 327 327 331 332 338 337 335 335 339 339 343 0 359 343 337 343
299 318 330 348 22 27 19 13 21 356 9 5 360 338 317 317 330 332 333 337 340 341 343 342 349 352 352 2 353 342 337 337
331 303 341 33 30 29 21 24 348 12 2 353 347 340 340 354 349 348 345 342 339 343 344 343 345 345 345 0 353 335 338 338
317 319 344 47 47 20 5 11 359 6 360 354 350 351 353 353 346 345 345 342 340 336 339 340 341 340 348 356 355 337 341 335
281 295 277 167 74 25 355 359 10 354 350 350 358 357 352 350 343 339 336 338 332 335 338 347 340 340 353 355 352 335 342 336
272 308 177 183 101 356 356 357 353 348 350 6 4 353 355 348 341 333 333 337 342 342 353 356 350 2 359 353 347 335 343 338
278 287 168 185 100 337 2 358 321 320 1 24 0 353 350 344 337 334 331 339 346 349 1 359 356 2 3 359 342 337 344 339
282 165 163 157 123 28 345 341 333 341 12 25 3 353 350 341 334 327 348 344 351 355 1 358 354 7 354 354 346 348 343 347
238 166 163 152 52 5 335 332 339 349 24 38 6 354 346 341 339 354 360 354 354 356 358 358 2 360 345 347 346 347 349 353
146 152 177 163 49 337 343 332 343 356 51 41 9 359 350 347 344 348 357 355 352 356 1 3 0 350 349 350 350 350 350 350
177 185 195 177 43 323 360 351 356 15 77 39 14 354 347 346 342 353 357 356 357 356 0 2 353 348 353 357 357 354 349 352
187 195 204 179 256 329 14 357 15 31 76 37 12 352 351 347 353 355 358 0 359 358 0 5 354 353 0 5 360 351 354 354
188 193 188 185 201 185 280 6 29 52 70 31 7 4 357 357 356 357 358 360 359 360 6 7 360 354 6 11 9 357 355 355
184 192 180 182 180 173 153 45 47 67 64 33 11 8 6 4 358 2 359 355 358 360 3 7 9 358 7 11 9 360 1 1
184 177 166 165 163 162 122 62 51 83 62 39 18 12 12 5 1 3 2 354 0 359 1 6 11 4 8 10 11 2 3 6